Location: Allen Lane School
(37.8198°N, 89.7382°W)
Time: 20:36:20
(UTC+00:00)

Cosmos 1607 - Pass Details

Date: 08 December 2021
Orbit: 921 x 981 km, 65.0° (Epoch: 16 January)

Event Time Altitude Azimuth Distance (km) Brightness Sun altitude
Exits shadow 12:05:08 - 333° (NNW) 3,227 6.3 -11.1°
Reaches altitude 10° 12:06:39 10° 335° (NNW) 2,673 5.9 -10.8°
Maximum altitude 12:12:51 66° 57° (ENE) 1,018 4.3 -9.7°
Drops below altitude 10° 12:18:55 10° 140° (SE) 2,622 7.4 -8.5°
Sets 12:21:27 0° 143° (SE) 3,556 8.1 -8.1°
